Alpena, MI

7:28 AM EST on January 20, 2017 (GMT -0500)
Alpena County Regional

Weather History for KAPN - February, 2013

Change the Weather History Date:

Thursday, February 14, 2013

  Actual Average Record
Temperature  
Mean Temperature 30 °F 20 °F  
Max Temperature 34 °F 29 °F 52 °F (1954)
Min Temperature 25 °F 11 °F -17 °F (1970)
Degree Days  
Heating Degree Days 35 45  
Month to date heating degree days 655 640  
Since 1 July heating degree days 4722 5122  
Moisture  
Dew Point 28 °F    
Average Humidity 89    
Maximum Humidity 92    
Minimum Humidity 85    
Precipitation  
Precipitation 0.22 in 0.04 in 0.81 in (1946)
Month to date precipitation 0.86 0.60  
Year to date precipitation 3.63 2.26  
Snow  
Snow 1.90 in 0.60 in 7.30 in (1946)
Month to date snowfall 8.5 8.9  
Since 1 July snowfall 29.5 57.5  
Snow Depth 4.00 in    
Sea Level Pressure  
Sea Level Pressure 29.66 in    
Wind  
Wind Speed 5 mph (South)    
Max Wind Speed 18 mph    
Max Gust Speed 29 mph    
Visibility 2 miles    
Events Fog , Snow    
T = Trace of Precipitation, MM = Missing Value Source: NWS Daily Summary

Daily Weather History Graph

Daily Weather History Graph

Search for Another Location

Airport or City:

Trip Planner

Search our weather history database for the weather conditions in past years. The results will help you decide how hot, cold, wet, or windy it might be!

Date:

Astronomy

Feb. 14, 2013 Rise Set
Actual Time 7:36 AM EST 6:01 PM EST
Civil Twilight 7:06 AM EST 6:31 PM EST
Nautical Twilight 6:31 AM EST 7:05 PM EST
Astronomical Twilight 5:57 AM EST 7:39 PM EST
Moon 9:22 AM EST (2/14) 11:19 PM EST (2/14)
Length of Visible Light 11h 25m
Length of Day
10h 24m
Waxing Crescent, 21% of the Moon is Illuminated
Feb 14
Waxing Crescent
Feb 17
First Quarter
Feb 25
Full
Mar 4
Last Quarter
Mar 11
New

Hourly Weather History & Observations

Time (EST) Temp. Windchill Dew Point Humidity Pressure Visibility Wind Dir Wind Speed Gust Speed Precip Events Conditions
12:54 AM 30.0 °F 25.2 °F 26.1 °F 85% 29.72 in 7.0 mi South 4.6 mph - N/A   Overcast
1:54 AM 30.0 °F 24.1 °F 26.1 °F 85% 29.71 in 7.0 mi South 5.8 mph - N/A   Overcast
2:54 AM 30.0 °F 26.5 °F 26.1 °F 85% 29.70 in 6.0 mi South 3.5 mph - N/A   Overcast
3:54 AM 30.0 °F 25.2 °F 26.1 °F 85% 29.69 in 6.0 mi SSW 4.6 mph - N/A   Overcast
4:54 AM 30.0 °F 25.2 °F 26.1 °F 85% 29.69 in 6.0 mi South 4.6 mph - N/A   Overcast
5:54 AM 28.9 °F 23.9 °F 26.1 °F 89% 29.69 in 5.0 mi South 4.6 mph - N/A   Overcast
6:54 AM 28.9 °F 23.9 °F 26.1 °F 89% 29.70 in 5.0 mi South 4.6 mph - N/A   Overcast
7:54 AM 30.0 °F 24.1 °F 26.1 °F 85% 29.70 in 4.0 mi South 5.8 mph - N/A   Overcast
8:01 AM 30.2 °F 24.3 °F 26.6 °F 86% 29.67 in 4.0 mi South 5.8 mph - N/A   Overcast
8:19 AM 30.2 °F 24.3 °F 26.6 °F 86% 29.67 in 2.5 mi South 5.8 mph - 0.00 in Snow Light Snow
8:24 AM 30.2 °F 24.3 °F 26.6 °F 86% 29.68 in 1.8 mi South 5.8 mph - 0.00 in Snow Light Snow
8:54 AM 30.9 °F 26.2 °F 28.0 °F 89% 29.71 in 1.5 mi SSW 4.6 mph - 0.00 in Snow Light Snow
9:08 AM 30.2 °F 25.4 °F 28.4 °F 93% 29.68 in 0.8 mi SSW 4.6 mph - 0.01 in Snow Light Snow
9:24 AM 30.2 °F 25.4 °F 28.4 °F 93% 29.67 in 1.0 mi SSW 4.6 mph - 0.01 in Snow Light Snow
9:54 AM 30.9 °F 27.5 °F 28.9 °F 92% 29.70 in 1.2 mi South 3.5 mph - 0.02 in Snow Light Snow
10:00 AM 30.2 °F 25.4 °F 28.4 °F 93% 29.66 in 2.0 mi South 4.6 mph - 0.00 in Snow Light Snow
10:24 AM 32.0 °F 27.5 °F 28.4 °F 87% 29.65 in 3.0 mi South 4.6 mph - 0.00 in Snow Light Snow
10:54 AM 33.1 °F 27.7 °F 28.9 °F 85% 29.68 in 4.0 mi SSE 5.8 mph - 0.00 in   Overcast
11:19 AM 33.8 °F 27.7 °F 28.4 °F 81% 29.65 in 4.0 mi SE 6.9 mph - N/A   Haze
11:34 AM 33.8 °F 29.6 °F 30.2 °F 87% 29.65 in 2.5 mi SE 4.6 mph - 0.00 in Snow Light Snow
11:40 AM 33.8 °F 28.6 °F 30.2 °F 87% 29.64 in 2.0 mi ESE 5.8 mph - 0.00 in Snow Light Snow
11:54 AM 34.0 °F 28.0 °F 30.0 °F 85% 29.67 in 1.0 mi SE 6.9 mph - 0.00 in Snow Light Snow
12:05 PM 33.8 °F 27.0 °F 28.4 °F 81% 29.64 in 1.2 mi SE 8.1 mph - 0.00 in Snow Light Snow
12:47 PM 33.8 °F 29.6 °F 30.2 °F 87% 29.62 in 0.8 mi SE 4.6 mph - 0.00 in Snow Light Snow
12:54 PM 33.1 °F 28.7 °F 30.9 °F 92% 29.65 in 0.8 mi SE 4.6 mph - 0.01 in Snow Light Snow
1:01 PM 33.8 °F 28.6 °F 30.2 °F 87% 29.61 in 0.5 mi SE 5.8 mph - 0.00 in Fog , Snow Snow
1:16 PM 33.8 °F 28.6 °F 30.2 °F 87% 29.61 in 0.5 mi ESE 5.8 mph - 0.01 in Fog , Snow Snow
1:23 PM 32.0 °F 26.4 °F 30.2 °F 93% 29.61 in 0.5 mi ESE 5.8 mph - 0.02 in Fog , Snow Snow
1:36 PM 32.0 °F 27.5 °F 30.2 °F 93% 29.60 in 0.2 mi ESE 4.6 mph - 0.03 in Fog , Snow Heavy Snow
1:54 PM 32.0 °F - 30.9 °F 96% 29.63 in 0.2 mi Calm Calm - 0.05 in Fog , Snow Heavy Snow
2:05 PM 32.0 °F 28.7 °F 30.2 °F 93% 29.60 in 0.2 mi SE 3.5 mph - 0.02 in Fog , Snow Heavy Snow
2:29 PM 32.0 °F 27.5 °F 30.2 °F 93% 29.59 in 0.5 mi ESE 4.6 mph - 0.05 in Fog , Snow Snow
2:43 PM 32.0 °F 27.5 °F 30.2 °F 93% 29.59 in 1.0 mi ESE 4.6 mph - 0.06 in Snow Light Snow
2:54 PM 32.0 °F 28.7 °F 30.9 °F 96% 29.62 in 1.5 mi ESE 3.5 mph - 0.06 in Snow Light Snow
3:13 PM 32.0 °F 26.4 °F 30.2 °F 93% 29.59 in 1.5 mi SE 5.8 mph - 0.01 in   Overcast
3:54 PM 33.1 °F 30.0 °F 30.9 °F 92% 29.61 in 1.0 mi SE 3.5 mph - 0.01 in Snow Light Snow
4:54 PM 33.1 °F - 30.9 °F 92% 29.61 in 1.2 mi Calm Calm - 0.01 in Snow Light Snow
5:54 PM 33.1 °F - 32.0 °F 96% 29.62 in 1.5 mi Calm Calm - 0.00 in   Overcast
6:08 PM 33.8 °F - 30.2 °F 87% 29.60 in 2.0 mi Calm Calm - 0.00 in Snow Light Snow
6:17 PM 33.8 °F - 30.2 °F 87% 29.60 in 1.8 mi Calm Calm - 0.00 in Snow Light Snow
6:54 PM 33.1 °F - 30.9 °F 92% 29.63 in 1.8 mi Calm Calm - 0.01 in Snow Light Snow
7:03 PM 33.8 °F - 30.2 °F 87% 29.61 in 1.8 mi Calm Calm - 0.00 in   Overcast
7:10 PM 33.8 °F - 30.2 °F 87% 29.61 in 2.0 mi Calm Calm - 0.00 in   Overcast
7:39 PM 33.8 °F 30.8 °F 30.2 °F 87% 29.61 in 3.0 mi NW 3.5 mph - 0.00 in   Overcast
7:50 PM 33.8 °F 29.6 °F 30.2 °F 87% 29.61 in 3.0 mi NW 4.6 mph - 0.00 in   Overcast
7:54 PM 33.1 °F 28.7 °F 30.9 °F 92% 29.64 in 2.5 mi WNW 4.6 mph - 0.00 in   Overcast
8:05 PM 33.8 °F 27.7 °F 30.2 °F 87% 29.61 in 3.0 mi NW 6.9 mph - N/A   Overcast
8:49 PM 32.0 °F 20.5 °F 30.2 °F 93% 29.63 in 1.8 mi NW 18.4 mph 23.0 mph 0.00 in Snow Light Snow
8:54 PM 32.0 °F 22.1 °F 28.9 °F 88% 29.66 in 1.2 mi NW 13.8 mph 24.2 mph 0.00 in Snow Light Snow
9:54 PM 30.0 °F 21.1 °F 27.0 °F 88% 29.68 in 1.0 mi NW 10.4 mph 18.4 mph 0.02 in Snow Light Snow
10:21 PM 28.4 °F 17.5 °F 26.6 °F 93% 29.67 in 1.2 mi NW 13.8 mph 26.5 mph 0.02 in Snow Light Snow
10:27 PM 28.4 °F 17.5 °F 24.8 °F 86% 29.67 in 1.5 mi NW 13.8 mph 26.5 mph 0.02 in Snow Light Snow
10:38 PM 28.4 °F 19.7 °F 24.8 °F 86% 29.68 in 1.5 mi NW 9.2 mph 23.0 mph 0.02 in Snow Light Snow
10:54 PM 28.0 °F 16.5 °F 24.1 °F 85% 29.71 in 2.0 mi WNW 15.0 mph 25.3 mph 0.02 in Snow Light Snow
11:09 PM 26.6 °F 16.8 °F 24.8 °F 93% 29.69 in 1.5 mi WNW 10.4 mph 19.6 mph 0.01 in Snow Light Snow
11:34 PM 26.6 °F 14.7 °F 23.0 °F 86% 29.71 in 2.5 mi WNW 15.0 mph 25.3 mph 0.01 in Snow Light Snow
11:41 PM 26.6 °F 15.7 °F 21.2 °F 80% 29.71 in 4.0 mi WNW 12.7 mph 25.3 mph 0.01 in Snow Light Snow
11:54 PM 25.0 °F 13.1 °F 21.0 °F 85% 29.74 in 3.0 mi WNW 13.8 mph 25.3 mph 0.01 in Snow Light Snow